Location: ?????????
(41.2393°N, 22.9479°E)
Time: 04:55:46
(UTC+00:00)

Cosmos 1954 Rocket - Pass Details

Date: 17 November 2025
Orbit: 748 x 776 km, 74.0° (Epoch: 09 December)

Event Time Altitude Azimuth Distance (km) Brightness Sun altitude
Rises 17:02:35 0° 206° (SSW) 3,237 7.7 -21.6°
Reaches altitude 10° 17:04:59 10° 209° (SSW) 2,312 6.9 -22.0°
Maximum altitude 17:10:11 64° 291° (WNW) 851 4.4 -23.0°
Enters shadow 17:14:05 18° 10° (N) 1,817 5.8 -23.7°
